This is the latest recevied weather packets stored in our database for station/object SP1BMW-13. If no packets are shown the sender has not sent any weather packets the latest 10 day(s).
| Time | Temp. | Humidity | Pressure | Rain* | Wind** | Luminosity | Snow |
|---|---|---|---|---|---|---|---|
| 1787925138 | 23.89° C | 56% | 1009.2 hPa | 0 mm | 1.34 m/s, 40° | 215 W/m² | - |
| 1787925078 | 23.89° C | 56% | 1009.3 hPa | 0 mm | 1.34 m/s, 107° | 210 W/m² | - |
| 1787925018 | 23.89° C | 57% | 1009.2 hPa | 0 mm | 0.89 m/s, 33° | 204 W/m² | - |
| 1787924958 | 23.89° C | 56% | 1009 hPa | 0 mm | 1.34 m/s, 45° | 202 W/m² | - |
| 1787924898 | 23.89° C | 56% | 1009 hPa | 0 mm | 0.89 m/s, 142° | 200 W/m² | - |
| 1787924839 | 23.89° C | 56% | 1009.1 hPa | 0 mm | 0.89 m/s, 14° | 200 W/m² | - |
| 1787924778 | 23.89° C | 56% | 1009 hPa | 0 mm | 1.34 m/s, 64° | 197 W/m² | - |
| 1787924718 | 23.89° C | 57% | 1009 hPa | 0 mm | 0.89 m/s, 19° | 197 W/m² | - |
| 1787924658 | 23.89° C | 55% | 1009 hPa | 0 mm | 0.89 m/s, 59° | 194 W/m² | - |
| 1787924598 | 23.89° C | 56% | 1009.1 hPa | 0 mm | 0.89 m/s, 332° | 193 W/m² | - |
| 1787924538 | 23.89° C | 57% | 1009.1 hPa | 0 mm | 0 m/s | 194 W/m² | - |
| 1787924478 | 23.89° C | 55% | 1009 hPa | 0 mm | 0.89 m/s, 344° | 195 W/m² | - |
| 1787924418 | 23.89° C | 56% | 1009.1 hPa | 0 mm | 1.79 m/s, 95° | 196 W/m² | - |
| 1787924358 | 23.89° C | 56% | 1009.1 hPa | 0 mm | 0.89 m/s, 47° | 200 W/m² | - |
| 1787924298 | 23.89° C | 56% | 1009 hPa | 0 mm | 0.89 m/s, 40° | 206 W/m² | - |
| 1787924238 | 23.89° C | 56% | 1009.1 hPa | 0 mm | 0.89 m/s, 74° | 210 W/m² | - |
| 1787924178 | 23.33° C | 55% | 1009.1 hPa | 0 mm | 1.34 m/s, 118° | 212 W/m² | - |
| 1787924118 | 23.33° C | 57% | 1009 hPa | 0 mm | 0.45 m/s, 8° | 214 W/m² | - |
| 1787924058 | 23.33° C | 57% | 1009 hPa | 0 mm | 0.89 m/s, 168° | 213 W/m² | - |
| 1787923998 | 23.33° C | 57% | 1008.9 hPa | 0 mm | 0.89 m/s, 21° | 210 W/m² | - |
| 1787923938 | 23.33° C | 57% | 1008.9 hPa | 0 mm | 2.24 m/s, 319° | 206 W/m² | - |
| 1787923878 | 23.33° C | 56% | 1008.9 hPa | 0 mm | 0.45 m/s, 46° | 197 W/m² | - |
| 1787923818 | 23.33° C | 57% | 1008.8 hPa | 0 mm | 1.34 m/s, 36° | 185 W/m² | - |
| 1787923759 | 23.33° C | 57% | 1008.8 hPa | 0 mm | 0.89 m/s, 41° | 176 W/m² | - |
| 1787923698 | 23.33° C | 57% | 1008.8 hPa | 0 mm | 0.45 m/s, 189° | 168 W/m² | - |
* Rain latest hour (hover to see other rain measurements)
** Current wind speed in m/s (hover to see current wind gust speed)